ENT2PF EDDM-LFPG

Flight info

Callsign ENT2PF
Flight time 1h 16m
Altitude 38000
Route GIVMI1N/26R GIVMI Y101 INBED DCT REKDI DCT LOHRE DCT BOMBI DCT RUDUS DCT BETEX DCT DIK UN857 TOLVU/N0457F370 DCT RAPOR DCT VEDUS
Aircraft B738/M-SDE2E3FGHIRWXY/LB1

Departure

Time 2026-05-07 18:02
Airport Munich Airport (EDDM)

Arrival

Time 2026-05-07 19:18
Airport Charles de Gaulle International Airport (LFPG)
Time Latitude Longitude Altitude Speed Heading
2026-05-07 17:05 48.35227 11.77697 1458 ft 0 kts 263°
2026-05-07 17:37 48.35229 11.77719 1456 ft 4 kts 263°
2026-05-07 17:37 48.35232 11.77755 1455 ft 3 kts 264°
2026-05-07 17:37 48.35229 11.77790 1455 ft 4 kts 315°
2026-05-07 17:37 48.35207 11.77805 1460 ft 3 kts 352°
2026-05-07 17:38 48.35199 11.77807 1460 ft 0 kts 352°
2026-05-07 17:44 48.35212 11.77804 1462 ft 4 kts 352°
2026-05-07 17:44 48.35247 11.77798 1459 ft 6 kts 353°
2026-05-07 17:45 48.35256 11.77796 1462 ft 0 kts 353°
2026-05-07 17:46 48.35258 11.77796 1462 ft 1 kts 353°
2026-05-07 17:46 48.35286 11.77791 1463 ft 7 kts 353°
2026-05-07 17:46 48.35350 11.77779 1460 ft 11 kts 353°
2026-05-07 17:46 48.35428 11.77765 1465 ft 11 kts 354°
2026-05-07 17:47 48.35505 11.77753 1456 ft 11 kts 354°
2026-05-07 17:47 48.35580 11.77741 1462 ft 11 kts 354°
2026-05-07 17:47 48.35652 11.77728 1465 ft 10 kts 353°
2026-05-07 17:47 48.35722 11.77715 1459 ft 10 kts 352°
2026-05-07 17:48 48.35790 11.77703 1463 ft 10 kts 352°
2026-05-07 17:48 48.35856 11.77696 1465 ft 9 kts 354°
2026-05-07 17:48 48.35921 11.77682 1465 ft 9 kts 357°
2026-05-07 17:48 48.35968 11.77734 1463 ft 9 kts 75°
2026-05-07 17:49 48.35976 11.77828 1466 ft 9 kts 83°
2026-05-07 17:49 48.35984 11.77921 1466 ft 9 kts 83°
2026-05-07 17:49 48.35991 11.78020 1455 ft 11 kts 83°
2026-05-07 17:49 48.36001 11.78153 1466 ft 15 kts 83°
2026-05-07 17:50 48.36011 11.78277 1466 ft 10 kts 83°
2026-05-07 17:50 48.36019 11.78376 1466 ft 9 kts 83°
2026-05-07 17:50 48.36035 11.78468 1461 ft 8 kts 54°
2026-05-07 17:50 48.36084 11.78485 1463 ft 7 kts 355°
2026-05-07 17:51 48.36133 11.78507 1465 ft 9 kts 50°
2026-05-07 17:51 48.36148 11.78623 1466 ft 12 kts 83°
2026-05-07 17:51 48.36158 11.78747 1466 ft 12 kts 83°
2026-05-07 17:51 48.36167 11.78870 1460 ft 12 kts 83°
2026-05-07 17:52 48.36178 11.79007 1467 ft 14 kts 83°
2026-05-07 17:52 48.36188 11.79150 1467 ft 14 kts 83°
2026-05-07 17:52 48.36199 11.79288 1467 ft 13 kts 84°
2026-05-07 17:52 48.36209 11.79422 1460 ft 13 kts 83°
2026-05-07 17:53 48.36219 11.79552 1467 ft 12 kts 83°
2026-05-07 17:53 48.36229 11.79682 1467 ft 14 kts 83°
2026-05-07 17:53 48.36241 11.79827 1465 ft 14 kts 83°
2026-05-07 17:53 48.36252 11.79971 1461 ft 13 kts 84°
2026-05-07 17:54 48.36263 11.80105 1467 ft 13 kts 83°
2026-05-07 17:54 48.36273 11.80238 1467 ft 13 kts 83°
2026-05-07 17:54 48.36283 11.80367 1463 ft 12 kts 83°
2026-05-07 17:54 48.36292 11.80496 1462 ft 13 kts 84°
2026-05-07 17:55 48.36302 11.80629 1466 ft 13 kts 83°
2026-05-07 17:55 48.36313 11.80758 1464 ft 12 kts 83°
2026-05-07 17:55 48.36322 11.80884 1466 ft 12 kts 83°
2026-05-07 17:55 48.36332 11.81006 1466 ft 12 kts 83°
2026-05-07 17:56 48.36338 11.81092 1460 ft 0 kts 83°
2026-05-07 17:57 48.36340 11.81114 1459 ft 6 kts 82°
2026-05-07 17:57 48.36345 11.81172 1464 ft 11 kts 84°
2026-05-07 17:57 48.36355 11.81312 1463 ft 15 kts 83°
2026-05-07 17:57 48.36367 11.81472 1460 ft 15 kts 84°
2026-05-07 17:58 48.36379 11.81623 1458 ft 14 kts 83°
2026-05-07 17:58 48.36390 11.81770 1463 ft 14 kts 83°
2026-05-07 17:58 48.36397 11.81901 1465 ft 11 kts 97°
2026-05-07 17:58 48.36404 11.82007 1461 ft 11 kts 35°
2026-05-07 17:59 48.36461 11.82009 1465 ft 4 kts 352°
2026-05-07 17:59 48.36462 11.82008 1465 ft 0 kts 352°
2026-05-07 17:59 48.36463 11.82008 1465 ft 1 kts 352°
2026-05-07 17:59 48.36480 11.82004 1462 ft 5 kts 351°
2026-05-07 18:00 48.36525 11.81996 1458 ft 8 kts 353°
2026-05-07 18:00 48.36590 11.81986 1460 ft 10 kts 353°
2026-05-07 18:00 48.36655 11.81969 1461 ft 8 kts 339°
2026-05-07 18:00 48.36673 11.81899 1463 ft 8 kts 263°
2026-05-07 18:01 48.36672 11.81890 1464 ft 0 kts 263°
2026-05-07 18:01 48.36657 11.81693 1465 ft 53 kts 263°
2026-05-07 18:01 48.36587 11.80775 1465 ft 121 kts 263°
2026-05-07 18:01 48.36473 11.79249 1534 ft 166 kts 264°
2026-05-07 18:02 48.36160 11.75487 2664 ft 196 kts 264°
2026-05-07 18:02 48.35971 11.73459 3429 ft 197 kts 263°
2026-05-07 18:02 48.35801 11.71432 4232 ft 191 kts 264°
2026-05-07 18:03 48.35661 11.69465 4949 ft 195 kts 265°
2026-05-07 18:03 48.35551 11.67422 5592 ft 196 kts 266°
2026-05-07 18:03 48.35466 11.65342 6140 ft 203 kts 267°
2026-05-07 18:03 48.35377 11.63209 6689 ft 209 kts 263°
2026-05-07 18:04 48.35368 11.60917 6820 ft 232 kts 285°
2026-05-07 18:04 48.35997 11.58619 7006 ft 242 kts 294°
2026-05-07 18:04 48.36820 11.56279 7030 ft 260 kts 299°
2026-05-07 18:04 48.37798 11.53932 7048 ft 267 kts 302°
2026-05-07 18:05 48.39045 11.51886 7025 ft 269 kts 327°
2026-05-07 18:05 48.40812 11.50885 7127 ft 275 kts 340°
2026-05-07 18:05 48.42651 11.50027 7884 ft 276 kts 340°
2026-05-07 18:05 48.44458 11.49172 8771 ft 276 kts 339°
2026-05-07 18:06 48.46308 11.48284 9550 ft 281 kts 338°
2026-05-07 18:06 48.48184 11.47372 10286 ft 285 kts 338°
2026-05-07 18:06 48.50136 11.46412 10558 ft 308 kts 338°
2026-05-07 18:06 48.52244 11.45368 10754 ft 331 kts 338°
2026-05-07 18:07 48.54504 11.44248 10932 ft 352 kts 338°
2026-05-07 18:07 48.56881 11.43071 11324 ft 364 kts 339°
2026-05-07 18:07 48.59282 11.41777 11950 ft 368 kts 335°
2026-05-07 18:07 48.61666 11.40322 12679 ft 371 kts 334°
2026-05-07 18:08 48.64055 11.38811 13412 ft 374 kts 334°
2026-05-07 18:08 48.66468 11.37276 14098 ft 378 kts 334°
2026-05-07 18:08 48.68903 11.35737 14778 ft 381 kts 334°
2026-05-07 18:08 48.71366 11.34190 15480 ft 384 kts 334°
2026-05-07 18:09 48.73846 11.32641 16192 ft 386 kts 335°
2026-05-07 18:09 48.76344 11.31087 16918 ft 389 kts 335°
2026-05-07 18:09 48.78856 11.29525 17604 ft 391 kts 335°
2026-05-07 18:09 48.81364 11.27966 18263 ft 395 kts 335°
2026-05-07 18:10 48.83919 11.26376 18837 ft 398 kts 335°
2026-05-07 18:10 48.86489 11.24776 19407 ft 401 kts 335°
2026-05-07 18:10 48.89079 11.23161 19973 ft 404 kts 335°
2026-05-07 18:10 48.91691 11.21531 20529 ft 406 kts 335°
2026-05-07 18:11 48.94321 11.19888 21068 ft 410 kts 335°
2026-05-07 18:11 48.96071 11.18793 21414 ft 412 kts 335°
2026-05-07 18:11 48.99638 11.16559 22102 ft 417 kts 335°
2026-05-07 18:11 49.02332 11.14870 22529 ft 421 kts 335°
2026-05-07 18:12 49.05055 11.13161 23033 ft 424 kts 335°
2026-05-07 18:12 49.07788 11.11443 23551 ft 427 kts 335°
2026-05-07 18:12 49.10544 11.09709 23964 ft 429 kts 335°
2026-05-07 18:12 49.13318 11.07962 24358 ft 432 kts 335°
2026-05-07 18:13 49.16107 11.06202 24752 ft 435 kts 335°
2026-05-07 18:13 49.18751 11.04014 25069 ft 434 kts 319°
2026-05-07 18:13 49.20716 11.00542 25441 ft 433 kts 300°
2026-05-07 18:13 49.21944 10.96357 25855 ft 432 kts 286°
2026-05-07 18:14 49.22680 10.91891 26221 ft 434 kts 282°
2026-05-07 18:14 49.23342 10.87360 26536 ft 437 kts 282°
2026-05-07 18:14 49.23989 10.82805 26809 ft 442 kts 282°
2026-05-07 18:14 49.24647 10.78182 27076 ft 446 kts 282°
2026-05-07 18:15 49.25317 10.73544 27445 ft 447 kts 282°
2026-05-07 18:15 49.25990 10.68960 27812 ft 448 kts 282°
2026-05-07 18:15 49.26680 10.64303 28081 ft 451 kts 282°
2026-05-07 18:15 49.27378 10.59625 28513 ft 450 kts 282°
2026-05-07 18:16 49.28074 10.54960 29070 ft 447 kts 282°
2026-05-07 18:16 49.28766 10.50324 29611 ft 445 kts 282°
2026-05-07 18:16 49.29450 10.45720 30072 ft 444 kts 282°
2026-05-07 18:16 49.30135 10.41104 30428 ft 444 kts 282°
2026-05-07 18:17 49.30816 10.36490 30779 ft 444 kts 282°
2026-05-07 18:17 49.31494 10.31886 31144 ft 443 kts 282°
2026-05-07 18:17 49.32169 10.27289 31501 ft 442 kts 282°
2026-05-07 18:17 49.32843 10.22682 31849 ft 442 kts 282°
2026-05-07 18:18 49.33514 10.18081 32206 ft 441 kts 282°
2026-05-07 18:18 49.34181 10.13492 32567 ft 440 kts 282°
2026-05-07 18:18 49.34846 10.08904 32919 ft 440 kts 282°
2026-05-07 18:18 49.35508 10.04324 33251 ft 439 kts 282°
2026-05-07 18:19 49.36166 9.99754 33614 ft 439 kts 282°
2026-05-07 18:19 49.36822 9.95186 33969 ft 438 kts 282°
2026-05-07 18:19 49.37467 9.90682 34255 ft 438 kts 282°
2026-05-07 18:19 49.38120 9.86113 34504 ft 438 kts 282°
2026-05-07 18:20 49.38770 9.81544 34738 ft 438 kts 282°
2026-05-07 18:20 49.39420 9.76968 34997 ft 438 kts 282°
2026-05-07 18:20 49.40067 9.72394 35264 ft 438 kts 282°
2026-05-07 18:20 49.40712 9.67818 35506 ft 438 kts 282°
2026-05-07 18:21 49.41355 9.63244 35745 ft 438 kts 281°
2026-05-07 18:21 49.41998 9.58664 35987 ft 438 kts 281°
2026-05-07 18:21 49.42639 9.54070 36038 ft 442 kts 281°
2026-05-07 18:22 49.43920 9.44866 36048 ft 443 kts 281°
2026-05-07 18:22 49.45186 9.35706 36359 ft 432 kts 281°
2026-05-07 18:22 49.45726 9.31176 36602 ft 430 kts 278°
2026-05-07 18:23 49.46179 9.26637 36853 ft 429 kts 277°
2026-05-07 18:23 49.46596 9.22116 37106 ft 427 kts 277°
2026-05-07 18:23 49.47006 9.17596 37366 ft 426 kts 277°
2026-05-07 18:23 49.47418 9.13097 37624 ft 424 kts 277°
2026-05-07 18:24 49.47835 9.08617 37883 ft 422 kts 277°
2026-05-07 18:24 49.48254 9.04161 38063 ft 423 kts 277°
2026-05-07 18:24 49.48681 8.99649 38047 ft 427 kts 277°
2026-05-07 18:25 49.49545 8.90530 38062 ft 435 kts 277°
2026-05-07 18:25 49.50422 8.81240 38059 ft 441 kts 277°
2026-05-07 18:26 49.51300 8.71861 38053 ft 443 kts 277°
2026-05-07 18:26 49.52173 8.62452 38045 ft 444 kts 277°
2026-05-07 18:27 49.53032 8.53092 38048 ft 443 kts 277°
2026-05-07 18:27 49.53886 8.43709 38049 ft 442 kts 277°
2026-05-07 18:28 49.54729 8.34357 38047 ft 440 kts 277°
2026-05-07 18:28 49.55561 8.25037 38052 ft 438 kts 277°
2026-05-07 18:29 49.56383 8.15749 38053 ft 437 kts 277°
2026-05-07 18:29 49.57194 8.06497 38055 ft 435 kts 276°
2026-05-07 18:30 49.57995 7.97268 38051 ft 434 kts 276°
2026-05-07 18:30 49.58787 7.88050 38050 ft 433 kts 276°
2026-05-07 18:31 49.59567 7.78898 38042 ft 433 kts 276°
2026-05-07 18:31 49.60344 7.69680 38047 ft 433 kts 276°
2026-05-07 18:32 49.61113 7.60472 38048 ft 434 kts 276°
2026-05-07 18:32 49.61878 7.51231 38043 ft 434 kts 276°
2026-05-07 18:33 49.62635 7.41979 38058 ft 435 kts 276°
2026-05-07 18:33 49.63387 7.32704 38056 ft 435 kts 276°
2026-05-07 18:34 49.64128 7.23474 38057 ft 436 kts 276°
2026-05-07 18:34 49.64634 7.14168 38059 ft 435 kts 269°
2026-05-07 18:35 49.64561 7.04819 38059 ft 435 kts 268°
2026-05-07 18:35 49.64439 6.95480 38054 ft 436 kts 268°
2026-05-07 18:36 49.64354 6.86122 38053 ft 436 kts 268°
2026-05-07 18:36 49.64289 6.76829 38052 ft 436 kts 268°
2026-05-07 18:37 49.64222 6.67463 38055 ft 436 kts 268°
2026-05-07 18:37 49.64149 6.58111 38056 ft 436 kts 268°
2026-05-07 18:38 49.64066 6.48756 38048 ft 436 kts 268°
2026-05-07 18:38 49.63976 6.39396 38050 ft 436 kts 268°
2026-05-07 18:39 49.63878 6.30051 38055 ft 435 kts 268°
2026-05-07 18:39 49.63774 6.20761 38049 ft 435 kts 268°
2026-05-07 18:40 49.63661 6.11427 38048 ft 435 kts 268°
2026-05-07 18:40 49.63541 6.02095 38049 ft 435 kts 268°
2026-05-07 18:41 49.63413 5.92767 38048 ft 435 kts 268°
2026-05-07 18:41 49.63301 5.85001 38050 ft 435 kts 268°
2026-05-07 18:42 49.63160 5.75654 38055 ft 435 kts 267°
2026-05-07 18:42 49.63012 5.66333 38063 ft 435 kts 267°
2026-05-07 18:43 49.62857 5.57058 37810 ft 427 kts 267°
2026-05-07 18:43 49.62778 5.52487 37203 ft 426 kts 267°
2026-05-07 18:43 49.62698 5.47908 36481 ft 428 kts 268°
2026-05-07 18:43 49.62614 5.43306 35789 ft 430 kts 268°
2026-05-07 18:44 49.62467 5.38696 35137 ft 431 kts 263°
2026-05-07 18:44 49.61928 5.34151 34530 ft 430 kts 254°
2026-05-07 18:44 49.60986 5.29784 33943 ft 429 kts 251°
2026-05-07 18:44 49.60007 5.25425 33171 ft 430 kts 252°
2026-05-07 18:45 49.59285 5.20940 32266 ft 434 kts 261°
2026-05-07 18:45 49.59043 5.16290 31350 ft 438 kts 270°
2026-05-07 18:45 49.59113 5.11580 30505 ft 441 kts 271°
2026-05-07 18:45 49.59195 5.06910 29757 ft 440 kts 271°
2026-05-07 18:46 49.59266 5.02222 29142 ft 434 kts 271°
2026-05-07 18:46 49.59320 4.97603 28573 ft 428 kts 270°
2026-05-07 18:46 49.59362 4.93036 27965 ft 424 kts 270°
2026-05-07 18:46 49.59398 4.88518 27332 ft 420 kts 270°
2026-05-07 18:47 49.59432 4.84023 26753 ft 416 kts 270°
2026-05-07 18:47 49.59463 4.79624 26520 ft 404 kts 270°
2026-05-07 18:47 49.59491 4.75375 26361 ft 391 kts 270°
2026-05-07 18:47 49.59513 4.71217 26073 ft 383 kts 270°
2026-05-07 18:48 49.59532 4.67192 26061 ft 369 kts 270°
2026-05-07 18:48 49.59550 4.63313 26044 ft 355 kts 270°
2026-05-07 18:48 49.59566 4.59577 26038 ft 341 kts 270°
2026-05-07 18:48 49.59580 4.55983 26039 ft 328 kts 270°
2026-05-07 18:49 49.59593 4.52488 25634 ft 328 kts 269°
2026-05-07 18:49 49.59604 4.48866 24531 ft 349 kts 270°
2026-05-07 18:49 49.59614 4.45006 23380 ft 371 kts 269°
2026-05-07 18:49 49.59625 4.40996 22598 ft 376 kts 269°
2026-05-07 18:50 49.59635 4.37030 22148 ft 371 kts 269°
2026-05-07 18:50 49.59644 4.33079 21740 ft 366 kts 269°
2026-05-07 18:50 49.59652 4.29177 21263 ft 363 kts 269°
2026-05-07 18:50 49.59657 4.25282 20761 ft 362 kts 269°
2026-05-07 18:51 49.59663 4.21409 20287 ft 359 kts 269°
2026-05-07 18:51 49.59666 4.17574 19835 ft 357 kts 269°
2026-05-07 18:51 49.59667 4.13759 19388 ft 355 kts 269°
2026-05-07 18:51 49.59544 4.09981 18924 ft 352 kts 258°
2026-05-07 18:52 49.58644 4.06496 18481 ft 351 kts 239°
2026-05-07 18:52 49.57103 4.03604 18011 ft 350 kts 223°
2026-05-07 18:52 49.55206 4.01264 17547 ft 348 kts 219°
2026-05-07 18:52 49.53271 3.99026 17066 ft 347 kts 218°
2026-05-07 18:53 49.51341 3.96818 16595 ft 345 kts 218°
2026-05-07 18:53 49.49429 3.94621 16153 ft 342 kts 218°
2026-05-07 18:53 49.47534 3.92426 15714 ft 340 kts 218°
2026-05-07 18:53 49.45653 3.90235 15270 ft 338 kts 218°
2026-05-07 18:54 49.43786 3.88054 14858 ft 335 kts 218°
2026-05-07 18:54 49.41958 3.85915 14444 ft 333 kts 218°
2026-05-07 18:54 49.40122 3.83766 14021 ft 332 kts 218°
2026-05-07 18:54 49.38290 3.81622 13579 ft 330 kts 218°
2026-05-07 18:55 49.36467 3.79492 13123 ft 328 kts 218°
2026-05-07 18:55 49.34648 3.77369 12673 ft 327 kts 218°
2026-05-07 18:55 49.32880 3.75310 12357 ft 321 kts 218°
2026-05-07 18:55 49.31162 3.73120 12246 ft 309 kts 229°
2026-05-07 18:56 49.30129 3.70325 12144 ft 298 kts 252°
2026-05-07 18:56 49.29868 3.67264 11947 ft 292 kts 272°
2026-05-07 18:56 49.30275 3.64245 11702 ft 290 kts 289°
2026-05-07 18:56 49.31264 3.61550 11334 ft 292 kts 308°
2026-05-07 18:57 49.32663 3.59290 11109 ft 293 kts 314°
2026-05-07 18:57 49.34131 3.57086 11084 ft 297 kts 314°
2026-05-07 18:57 49.35602 3.54874 11067 ft 295 kts 314°
2026-05-07 18:57 49.37054 3.52665 11057 ft 294 kts 314°
2026-05-07 18:58 49.38502 3.50446 11060 ft 294 kts 314°
2026-05-07 18:58 49.39943 3.48219 11060 ft 294 kts 311°
2026-05-07 18:58 49.40975 3.45555 11059 ft 291 kts 284°
2026-05-07 18:58 49.41105 3.42484 11082 ft 288 kts 261°
2026-05-07 18:59 49.40546 3.39546 11071 ft 288 kts 248°
2026-05-07 18:59 49.39790 3.36688 11065 ft 289 kts 246°
2026-05-07 18:59 49.39007 3.33851 11059 ft 289 kts 246°
2026-05-07 18:59 49.38229 3.31046 11057 ft 289 kts 246°
2026-05-07 19:00 49.37446 3.28204 11056 ft 289 kts 246°
2026-05-07 19:00 49.36668 3.25360 11056 ft 289 kts 246°
2026-05-07 19:00 49.35893 3.22513 11061 ft 289 kts 246°
2026-05-07 19:00 49.35123 3.19676 11062 ft 288 kts 247°
2026-05-07 19:01 49.34353 3.16837 11060 ft 288 kts 247°
2026-05-07 19:01 49.33584 3.13994 11061 ft 288 kts 247°
2026-05-07 19:01 49.32813 3.11147 11062 ft 288 kts 247°
2026-05-07 19:01 49.32045 3.08311 11061 ft 288 kts 247°
2026-05-07 19:02 49.31275 3.05471 11061 ft 288 kts 247°
2026-05-07 19:02 49.30506 3.02636 11058 ft 288 kts 247°
2026-05-07 19:02 49.29735 2.99796 11062 ft 288 kts 247°
2026-05-07 19:02 49.28976 2.97001 11064 ft 288 kts 247°
2026-05-07 19:03 49.28204 2.94165 11059 ft 288 kts 247°
2026-05-07 19:03 49.27433 2.91337 11058 ft 288 kts 247°
2026-05-07 19:03 49.26663 2.88512 11060 ft 288 kts 247°
2026-05-07 19:03 49.25891 2.85685 11063 ft 287 kts 247°
2026-05-07 19:04 49.25123 2.82874 11056 ft 287 kts 247°
2026-05-07 19:04 49.24349 2.80048 11059 ft 286 kts 247°
2026-05-07 19:04 49.23579 2.77240 11060 ft 286 kts 247°
2026-05-07 19:04 49.22810 2.74435 11060 ft 286 kts 247°
2026-05-07 19:05 49.22040 2.71631 11053 ft 285 kts 246°
2026-05-07 19:05 49.21272 2.68837 11053 ft 285 kts 247°
2026-05-07 19:05 49.20503 2.66040 11052 ft 285 kts 246°
2026-05-07 19:05 49.19733 2.63250 11059 ft 285 kts 247°
2026-05-07 19:06 49.18961 2.60454 11054 ft 285 kts 247°
2026-05-07 19:06 49.17953 2.54662 10735 ft 292 kts 268°
2026-05-07 19:06 49.17928 2.51542 10375 ft 294 kts 268°
2026-05-07 19:07 49.17893 2.48377 10007 ft 294 kts 268°
2026-05-07 19:07 49.17843 2.45358 9982 ft 281 kts 268°
2026-05-07 19:07 49.17783 2.42406 9558 ft 282 kts 267°
2026-05-07 19:07 49.17716 2.39355 8987 ft 290 kts 268°
2026-05-07 19:08 49.17649 2.36265 8559 ft 291 kts 268°
2026-05-07 19:08 49.17593 2.33176 8195 ft 290 kts 268°
2026-05-07 19:08 49.17539 2.30119 7916 ft 286 kts 268°
2026-05-07 19:08 49.17489 2.27103 7658 ft 282 kts 268°
2026-05-07 19:09 49.17441 2.24159 7554 ft 272 kts 268°
2026-05-07 19:09 49.17396 2.21268 7269 ft 270 kts 268°
2026-05-07 19:09 49.17382 2.18463 7169 ft 261 kts 271°
2026-05-07 19:09 49.17407 2.15714 7054 ft 254 kts 271°
2026-05-07 19:10 49.17421 2.13008 6907 ft 257 kts 271°
2026-05-07 19:10 49.17379 2.10293 6847 ft 256 kts 261°
2026-05-07 19:10 49.16566 2.07927 6835 ft 258 kts 223°
2026-05-07 19:10 49.14985 2.06571 6674 ft 268 kts 195°
2026-05-07 19:11 49.13116 2.06413 6445 ft 273 kts 171°
2026-05-07 19:11 49.11339 2.07390 6190 ft 271 kts 151°
2026-05-07 19:11 49.09758 2.08843 5948 ft 268 kts 147°
2026-05-07 19:11 49.08198 2.10369 5664 ft 264 kts 147°
2026-05-07 19:12 49.06657 2.11849 5342 ft 259 kts 148°
2026-05-07 19:12 49.05139 2.13276 5031 ft 254 kts 148°
2026-05-07 19:12 49.03649 2.14659 4723 ft 249 kts 148°
2026-05-07 19:12 49.02216 2.15981 4709 ft 232 kts 148°
2026-05-07 19:13 49.00925 2.17369 4533 ft 226 kts 129°
2026-05-07 19:13 49.00423 2.19532 4350 ft 219 kts 84°
2026-05-07 19:13 49.00784 2.21779 4201 ft 219 kts 76°
2026-05-07 19:13 49.01004 2.24038 4027 ft 212 kts 85°
2026-05-07 19:14 49.01099 2.26268 3741 ft 209 kts 86°
2026-05-07 19:14 49.01204 2.28449 3471 ft 205 kts 85°
2026-05-07 19:14 49.01315 2.30583 3209 ft 200 kts 85°
2026-05-07 19:14 49.01424 2.32683 2936 ft 196 kts 85°
2026-05-07 19:15 49.01529 2.34696 2691 ft 185 kts 85°
2026-05-07 19:15 49.01628 2.36603 2457 ft 175 kts 85°
2026-05-07 19:15 49.01722 2.38397 2218 ft 165 kts 85°
2026-05-07 19:15 49.01811 2.40089 2015 ft 154 kts 85°
2026-05-07 19:16 49.01893 2.41642 1828 ft 143 kts 85°
2026-05-07 19:16 49.01971 2.43115 1630 ft 140 kts 85°
2026-05-07 19:16 49.02049 2.44604 1459 ft 142 kts 85°
2026-05-07 19:16 49.02128 2.46090 1297 ft 139 kts 84°
2026-05-07 19:17 49.02207 2.47572 1072 ft 141 kts 85°
2026-05-07 19:17 49.02286 2.49059 861 ft 138 kts 85°
2026-05-07 19:17 49.02367 2.50528 676 ft 140 kts 84°
2026-05-07 19:17 49.02453 2.51988 473 ft 140 kts 85°
2026-05-07 19:18 49.02525 2.53430 360 ft 128 kts 87°
2026-05-07 19:18 49.02589 2.54638 351 ft 98 kts 84°
2026-05-07 19:18 49.02624 2.55281 358 ft 23 kts 84°
2026-05-07 19:18 49.02631 2.55387 356 ft 9 kts 84°
2026-05-07 19:19 49.02640 2.55550 361 ft 21 kts 88°
2026-05-07 19:19 49.02632 2.55752 355 ft 14 kts 97°
2026-05-07 19:19 49.02595 2.55881 355 ft 11 kts 130°
2026-05-07 19:19 49.02535 2.55936 353 ft 10 kts 167°
2026-05-07 19:20 49.02474 2.55947 353 ft 8 kts 175°
2026-05-07 19:20 49.02422 2.55954 353 ft 7 kts 175°
2026-05-07 19:20 49.02359 2.55961 353 ft 11 kts 175°
2026-05-07 19:20 49.02272 2.55972 357 ft 14 kts 175°
2026-05-07 19:21 49.02197 2.55981 355 ft 11 kts 175°
2026-05-07 19:21 49.02124 2.55977 353 ft 10 kts 198°
2026-05-07 19:21 49.02084 2.55897 355 ft 10 kts 258°
2026-05-07 19:21 49.02077 2.55793 360 ft 10 kts 265°
2026-05-07 19:22 49.02073 2.55691 353 ft 10 kts 267°
2026-05-07 19:22 49.02068 2.55571 353 ft 12 kts 266°
2026-05-07 19:22 49.02046 2.55467 360 ft 11 kts 220°
2026-05-07 19:22 49.01987 2.55457 358 ft 7 kts 175°
2026-05-07 19:23 49.01931 2.55464 353 ft 10 kts 176°
2026-05-07 19:23 49.01879 2.55401 353 ft 11 kts 259°
2026-05-07 19:23 49.01872 2.55290 353 ft 10 kts 265°
2026-05-07 19:23 49.01864 2.55182 358 ft 10 kts 255°
2026-05-07 19:24 49.01808 2.55133 356 ft 10 kts 179°
2026-05-07 19:24 49.01739 2.55140 353 ft 10 kts 176°
2026-05-07 19:24 49.01673 2.55148 353 ft 9 kts 175°
2026-05-07 19:24 49.01606 2.55157 356 ft 11 kts 176°
2026-05-07 19:25 49.01505 2.55169 357 ft 18 kts 174°
2026-05-07 19:25 49.01387 2.55203 361 ft 14 kts 165°
2026-05-07 19:25 49.01314 2.55218 358 ft 8 kts 187°
2026-05-07 19:25 49.01264 2.55222 357 ft 7 kts 148°
2026-05-07 19:26 49.01251 2.55292 353 ft 7 kts 87°
2026-05-07 19:26 49.01254 2.55366 360 ft 5 kts 86°
2026-05-07 19:26 49.01264 2.55407 358 ft 4 kts 35°
2026-05-07 19:26 49.01292 2.55410 355 ft 4 kts 356°
2026-05-07 19:27 49.01312 2.55408 353 ft 2 kts 355°
2026-05-07 19:27 49.01327 2.55406 353 ft 2 kts 355°
2026-05-07 19:27 49.01332 2.55406 353 ft 1 kts 355°
2026-05-07 19:27 49.01337 2.55405 353 ft 1 kts 355°
2026-05-07 19:28 49.01340 2.55405 353 ft 0 kts 355°
2026-05-07 19:38 48.86531 11.24750 19421 ft 401 kts 335°
2026-05-07 19:38 49.01885 2.41490 1725 ft 143 kts 85°
2026-05-07 19:38 49.02305 2.49415 814 ft 138 kts 85°
2026-05-07 19:39 49.02386 2.50886 625 ft 140 kts 84°
2026-05-07 19:39 49.02472 2.52367 427 ft 140 kts 85°
2026-05-07 19:39 49.02546 2.53771 357 ft 123 kts 85°
2026-05-07 19:39 49.02600 2.54864 352 ft 89 kts 86°
2026-05-07 19:40 49.02627 2.55332 356 ft 14 kts 84°
2026-05-07 19:40 49.02633 2.55416 356 ft 13 kts 84°
2026-05-07 19:40 49.02639 2.55609 355 ft 22 kts 94°
2026-05-07 19:40 49.02626 2.55790 355 ft 14 kts 107°
2026-05-07 19:41 49.02581 2.55900 360 ft 10 kts 140°
2026-05-07 19:41 49.02519 2.55940 358 ft 9 kts 171°
2026-05-07 19:41 49.02463 2.55949 353 ft 8 kts 175°
2026-05-07 19:41 49.02424 2.55953 353 ft 7 kts 175°
2026-05-07 19:42 49.02398 2.55957 353 ft 9 kts 175°